Hanford, CA

8:26 PM PDT on July 22, 2017 (GMT -0700)
Hanford Municipal

Weather History for KHJO - March, 2014

Change the Weather History Date:

Wednesday, March 5, 2014

  Actual Average Record
Temperature  
Mean Temperature 60 °F 54 °F  
Max Temperature 71 °F 66 °F 79 °F (2012)
Min Temperature 49 °F 42 °F 32 °F (2010)
Degree Days  
Heating Degree Days 5    
Month to date heating degree days 38  
Since 1 July heating degree days 1815  
Cooling Degree Days 0    
Month to date cooling degree days 0  
Year to date cooling degree days 0  
Growing Degree Days 9 (Base 50)    
Moisture  
Dew Point 52 °F    
Average Humidity 79    
Maximum Humidity 100    
Minimum Humidity 57    
Precipitation  
Precipitation 0.00 in 0.07 in 0.87 in (2000)
Month to date precipitation T 0.40  
Year to date precipitation 1.76 4.17  
Since 1 July precipitation 2.15  
Snow  
Snow 0.00 in - - ()
Month to date snowfall 0.0  
Since 1 July snowfall 0.0  
Snow Depth 0.00 in    
Sea Level Pressure  
Sea Level Pressure 30.10 in    
Wind  
Wind Speed 3 mph (SSE)    
Max Wind Speed 8 mph    
Max Gust Speed 11 mph    
Visibility 3 miles    
Events Fog    
T = Trace of Precipitation, MM = Missing Value Source: NWS Daily Summary

Daily Weather History Graph

Daily Weather History Graph

Search for Another Location

Airport or City:

Trip Planner

Search our weather history database for the weather conditions in past years. The results will help you decide how hot, cold, wet, or windy it might be!

Date:

Astronomy

Mar. 05, 2014 Rise Set
Actual Time 6:23 AM PST 5:57 PM PST
Civil Twilight 5:57 AM PST 6:22 PM PST
Nautical Twilight 5:27 AM PST 6:52 PM PST
Astronomical Twilight 4:58 AM PST 7:22 PM PST
Moon 9:01 AM PST (3/5) 11:01 PM PST (3/5)
Length of Visible Light 12h 25m
Length of Day
11h 33m
Waxing Crescent, 24% of the Moon is Illuminated
Mar 5
Waxing Crescent
Mar 8
First Quarter
Mar 16
Full
Mar 23
Last Quarter
Mar 30
New

Hourly Weather History & Observations

Time (PST) Temp. Dew Point Humidity Pressure Visibility Wind Dir Wind Speed Gust Speed Precip Events Conditions
12:53 AM 50.0 °F 48.9 °F 96% 30.13 in 3.0 mi Calm Calm - N/A   Scattered Clouds
1:00 AM 50.0 °F 48.9 °F 96% 30.12 in 2.5 mi Calm Calm - N/A   Mostly Cloudy
1:11 AM 51.1 °F 48.9 °F 92% 30.12 in 3.0 mi Calm Calm - N/A   Mostly Cloudy
1:27 AM 51.1 °F 48.9 °F 92% 30.12 in 2.5 mi Calm Calm - N/A   Scattered Clouds
1:53 AM 50.0 °F 48.9 °F 96% 30.12 in 2.5 mi Calm Calm - N/A   Clear
2:09 AM 50.0 °F 48.9 °F 96% 30.11 in 3.0 mi Calm Calm - N/A   Clear
2:34 AM 50.0 °F 48.0 °F 93% 30.10 in 2.0 mi Calm Calm - N/A   Clear
2:53 AM 50.0 °F 48.0 °F 93% 30.09 in 2.0 mi ESE 5.8 mph - N/A   Clear
3:53 AM 51.1 °F 50.0 °F 96% 30.10 in 2.5 mi West 3.5 mph - N/A   Clear
4:42 AM 50.0 °F 48.9 °F 96% 30.09 in 1.8 mi ENE 3.5 mph - N/A   Clear
4:53 AM 48.9 °F 48.0 °F 97% 30.10 in 2.0 mi ENE 3.5 mph - N/A   Clear
5:41 AM 51.1 °F 50.0 °F 96% 30.12 in 3.0 mi Calm Calm - N/A   Clear
5:53 AM 51.1 °F 50.0 °F 96% 30.12 in 3.0 mi Calm Calm - N/A   Clear
6:05 AM 51.1 °F 48.9 °F 92% 30.12 in 2.5 mi Calm Calm - N/A   Clear
6:12 AM 51.1 °F 48.0 °F 89% 30.12 in 3.0 mi Calm Calm - N/A   Clear
6:32 AM 50.0 °F 48.0 °F 93% 30.11 in 2.0 mi Calm Calm - N/A   Clear
6:42 AM 50.0 °F 48.0 °F 93% 30.12 in 1.0 mi SE 3.5 mph - N/A   Clear
6:50 AM 48.2 °F 48.2 °F 100% 30.12 in 0.8 mi SE 3.5 mph - N/A   Clear
6:53 AM 48.9 °F 48.0 °F 97% 30.13 in 1.0 mi Calm Calm - N/A   Clear
7:53 AM 52.0 °F 52.0 °F 100% 30.15 in 1.2 mi SW 3.5 mph - N/A   Clear
8:07 AM 53.1 °F 52.0 °F 96% 30.14 in 0.8 mi South 4.6 mph - N/A   Mist
8:21 AM 53.1 °F 52.0 °F 96% 30.14 in 0.2 mi SSW 4.6 mph - N/A Fog Fog
8:53 AM 54.0 °F 53.1 °F 97% 30.15 in 0.2 mi SSE 5.8 mph - N/A Fog Fog
9:09 AM 55.0 °F 55.0 °F 100% 30.13 in 1.0 mi SSE 4.6 mph - N/A   Overcast
9:26 AM 57.0 °F 55.0 °F 93% 30.13 in 2.0 mi South 4.6 mph - N/A   Scattered Clouds
9:53 AM 59.0 °F 55.0 °F 87% 30.13 in 3.0 mi South 5.8 mph - N/A   Clear
10:53 AM 63.0 °F 54.0 °F 72% 30.12 in 5.0 mi South 4.6 mph - N/A   Haze
11:53 AM 66.0 °F 54.0 °F 65% 30.11 in 5.0 mi Calm Calm - N/A   Haze
12:53 PM 69.1 °F 55.0 °F 61% 30.09 in 5.0 mi Calm Calm - N/A   Haze
1:53 PM 69.1 °F 54.0 °F 58% 30.07 in 6.0 mi Variable 4.6 mph - N/A   Haze
2:53 PM 70.0 °F 54.0 °F 57% 30.06 in 6.0 mi NE 6.9 mph - N/A   Haze
3:53 PM 70.0 °F 54.0 °F 57% 30.05 in 6.0 mi ENE 5.8 mph - N/A   Haze
4:53 PM 69.1 °F 54.0 °F 58% 30.05 in 6.0 mi ESE 3.5 mph - N/A   Haze
5:53 PM 66.0 °F 55.9 °F 70% 30.06 in 5.0 mi South 3.5 mph - N/A   Haze
6:53 PM 63.0 °F 55.9 °F 78% 30.07 in 5.0 mi Calm Calm - N/A   Haze
7:53 PM 62.1 °F 55.9 °F 80% 30.07 in 5.0 mi Calm Calm - N/A   Haze
8:53 PM 59.0 °F 55.0 °F 87% 30.07 in 4.0 mi Calm Calm - N/A   Clear
9:53 PM 57.0 °F 54.0 °F 89% 30.07 in 3.0 mi Calm Calm - N/A   Clear
10:08 PM 55.9 °F 54.0 °F 93% 30.06 in 2.5 mi SSE 3.5 mph - N/A   Clear
10:39 PM 57.0 °F 54.0 °F 89% 30.06 in 3.0 mi South 3.5 mph - N/A   Clear
10:53 PM 55.9 °F 54.0 °F 93% 30.07 in 2.0 mi Calm Calm - N/A   Clear
11:53 PM 57.0 °F 55.0 °F 93% 30.06 in 3.0 mi ESE 6.9 mph - N/A   Mostly Cloudy